GFSGL_250_rhum_000.txt.gz
RH
29 28 28 37 42 48 54 56 52 49 55 57 84 100 93 86 97 85 71 65 71 79 89 86 90 74 66 58 56 87 64 50 28 28 49 33 16 13 13 18 19 31 47
38 37 36 36 42 43 53 51 53 78 100 95 98 99 100 94 86 78 67 72 86 74 80 91 80 84 73 60 74 95 59 33 36 20 14 18 18 9 10 12 16 19 27
36 29 30 33 34 43 43 48 91 90 94 100 95 84 65 55 66 68 76 73 72 77 87 92 81 96 67 67 71 59 37 42 18 16 10 7 9 9 9 9 10 14 16
29 30 28 27 34 38 92 94 100 100 100 100 100 92 89 85 78 75 74 73 76 82 82 76 77 80 73 62 69 45 32 20 13 8 6 5 5 6 9 7 8 9 12
28 27 27 29 36 84 93 100 94 100 100 100 100 100 100 88 81 77 80 79 68 74 82 100 82 70 96 81 56 46 29 16 10 5 4 3 4 4 6 7 7 7 8
35 34 28 25 31 93 100 100 100 99 100 95 100 100 100 100 82 76 62 54 48 30 67 93 90 90 88 68 58 50 27 14 10 7 4 3 3 4 4 5 6 5 6
16 19 12 12 27 78 98 100 100 100 100 93 100 100 100 92 89 77 70 68 54 41 69 77 88 61 64 70 56 42 32 19 13 8 5 4 4 3 4 4 4 4 5
11 11 12 11 30 72 100 100 100 100 92 100 100 100 100 79 59 60 72 81 100 93 82 94 100 99 82 82 55 33 27 21 15 7 6 5 4 4 3 4 4 4 5
11 10 9 12 33 100 100 100 100 100 100 99 100 100 74 59 64 80 90 78 86 100 98 100 100 87 91 62 47 31 36 28 18 8 6 6 5 4 3 3 3 4 4
10 11 12 11 17 87 91 98 100 100 100 100 100 90 89 100 81 89 100 100 94 99 77 100 98 92 86 60 37 39 32 30 20 8 8 7 6 5 4 4 4 4 4
12 13 13 15 16 80 100 100 100 100 100 97 89 78 99 100 100 100 100 100 100 94 75 98 100 100 66 46 54 45 34 33 14 9 9 9 8 6 5 5 5 5 4
12 23 42 20 57 83 100 100 100 100 98 88 67 75 100 100 100 100 100 100 100 85 62 98 92 60 52 68 65 34 31 27 10 11 10 12 10 8 7 6 5 5 5
16 14 52 82 62 88 91 94 88 100 77 78 73 65 66 55 78 77 80 89 82 67 90 100 90 87 82 66 40 30 29 18 11 12 14 15 16 18 18 14 13 12 7
25 51 75 85 88 92 88 64 92 99 85 100 100 100 91 82 71 90 97 100 100 99 100 100 92 80 63 41 33 32 22 12 12 13 18 21 33 40 38 39 42 19 12
37 36 81 90 86 98 100 89 96 100 72 70 74 71 79 76 91 94 94 70 96 100 91 86 86 63 46 37 35 24 14 11 13 13 21 36 45 48 47 56 50 37 18
69 45 56 50 54 76 54 43 74 64 58 66 62 78 92 90 91 94 96 93 96 90 80 64 53 43 37 35 28 18 12 12 12 15 27 53 48 62 58 59 73 53 22
100 78 58 67 78 99 99 99 99 100 100 95 99 94 100 100 92 74 63 58 64 58 50 46 44 36 34 27 17 13 14 13 13 19 42 65 56 78 80 70 76 52 30
82 74 82 88 88 100 100 100 100 100 100 100 97 90 86 92 72 60 56 50 43 39 34 33 32 24 22 16 12 15 16 14 14 21 49 72 69 84 75 76 71 44 22
93 83 78 89 85 99 100 96 96 95 98 96 90 87 71 58 52 47 43 34 31 29 23 21 21 18 14 13 16 18 19 15 16 23 46 73 81 87 87 78 80 46 31
98 90 98 100 100 100 100 96 100 100 74 73 59 53 49 46 45 30 19 17 16 14 14 14 14 13 17 21 21 23 22 20 19 25 38 79 88 85 94 72 90 48 56
100 100 87 96 100 100 100 100 90 65 56 48 44 46 44 29 18 18 14 13 14 14 13 14 18 22 23 26 27 26 26 26 21 26 27 75 100 80 100 79 98 68 52
99 100 98 92 99 97 85 64 60 50 46 42 42 32 19 19 17 21 21 19 19 20 22 27 30 31 31 26 23 21 25 27 26 24 27 60 100 76 92 92 100 100 98
97 94 88 90 94 85 65 58 48 40 39 39 22 25 25 20 21 23 23 24 25 26 28 28 32 34 29 23 20 18 20 28 30 26 28 42 85 93 74 88 89 100 100
90 85 81 73 64 56 45 37 38 35 24 25 29 26 24 27 26 24 24 25 24 26 28 30 30 30 28 26 23 21 18 19 25 29 27 30 67 99 81 72 80 87 100
50 46 43 39 35 34 33 29 25 28 39 38 35 32 28 28 28 30 30 31 27 27 29 28 31 30 28 28 28 27 25 24 23 21 22 25 32 85 98 73 69 78 97
34 30 25 22 22 26 36 41 48 50 41 42 37 30 26 26 27 28 29 31 32 32 33 30 30 30 28 28 30 32 31 28 27 26 22 18 25 40 88 92 76 71 76

GFSGL_250_rhum_003.txt.gz
RH
28 27 28 32 34 39 38 48 42 40 83 97 62 80 80 83 91 82 68 87 96 94 88 75 61 50 80 52 62 46 47 67 60 61 62 50 29 22 14 13 19 15 16
30 32 33 32 35 40 39 34 36 90 100 100 78 83 89 97 77 75 85 91 95 99 94 84 71 70 64 71 51 51 72 76 82 97 76 54 36 15 12 7 9 16 12
35 32 32 37 33 33 22 93 100 100 100 100 100 100 100 100 100 88 85 89 80 90 92 92 82 70 74 50 77 61 78 100 88 90 63 40 26 19 9 6 5 7 13
30 22 18 15 12 12 12 86 95 100 100 100 100 96 100 100 96 96 96 100 100 100 100 94 84 68 69 80 73 99 100 97 63 48 40 38 22 16 7 5 4 4 7
24 15 9 9 10 11 15 62 97 100 100 100 100 100 100 100 100 100 100 100 100 100 100 98 97 62 74 69 93 96 100 76 60 32 26 29 18 16 7 5 4 3 4
19 11 10 10 10 12 12 47 66 100 100 100 100 100 100 100 100 100 100 100 100 100 100 91 64 53 56 77 64 98 82 66 59 58 30 27 16 13 7 5 4 3 3
14 10 10 10 11 12 13 26 98 100 98 100 99 72 98 100 100 100 100 100 100 100 98 74 42 50 64 87 91 95 78 88 100 59 40 18 21 12 6 5 4 4 3
11 10 11 12 12 15 16 33 29 88 60 75 83 91 100 100 100 100 100 100 100 97 78 83 88 97 100 100 93 86 100 100 83 64 25 21 25 14 6 5 4 4 3
11 12 13 13 14 14 42 18 19 25 44 100 97 100 100 100 81 100 100 100 100 98 97 100 100 100 100 98 98 100 81 51 49 39 21 22 18 11 6 5 4 4 3
12 13 13 13 13 15 31 49 21 65 40 36 77 99 93 100 100 100 100 90 100 100 100 100 100 100 89 83 100 87 61 45 47 27 21 18 18 8 6 4 4 4 3
16 16 14 12 12 15 16 16 17 55 63 61 77 91 96 100 100 100 99 95 94 90 82 96 92 81 68 63 70 59 56 53 38 29 18 20 12 8 6 5 5 4 4
16 14 14 14 14 14 35 21 26 40 68 78 75 96 100 94 88 84 94 93 86 87 72 63 50 50 85 89 74 65 56 43 23 20 21 16 9 7 6 7 8 6 6
15 17 19 20 18 18 21 21 17 42 90 68 63 75 80 78 74 83 71 61 52 75 72 69 63 53 72 82 68 38 35 32 22 18 15 11 8 6 7 11 16 18 12
17 21 39 53 27 20 32 35 31 79 75 50 43 44 43 47 49 59 74 71 53 54 51 56 56 65 48 36 40 38 30 22 17 12 11 8 8 6 10 17 25 31 25
18 35 36 28 20 34 56 78 69 57 60 55 58 69 69 62 62 72 67 63 66 69 59 44 39 46 51 38 32 23 16 12 11 9 8 7 8 8 16 26 33 46 46
17 18 21 28 39 82 97 92 100 100 95 68 62 90 56 75 80 73 79 71 79 50 48 61 53 47 38 28 14 10 10 10 8 7 7 7 9 10 22 47 42 54 55
19 19 38 48 55 96 98 78 93 95 64 46 58 67 93 82 74 78 87 88 67 59 57 45 39 33 18 11 10 9 8 7 7 7 7 8 10 18 34 54 48 52 65
26 49 64 76 71 64 71 100 83 59 78 73 90 79 74 86 95 95 81 62 56 58 44 37 24 13 13 11 9 8 7 7 8 8 9 10 12 29 44 53 60 71 68
52 53 59 68 76 81 80 76 92 87 80 74 92 84 87 87 77 65 53 54 58 49 34 19 19 15 15 13 10 8 8 12 11 11 12 12 15 44 57 58 72 71 69
78 75 76 95 93 86 100 84 69 68 75 75 79 69 62 52 58 63 62 54 44 25 24 19 18 16 17 16 14 13 15 17 16 15 16 15 16 51 62 57 72 79 84
100 94 99 93 93 58 60 68 73 64 65 64 62 55 56 64 63 55 43 34 24 23 23 20 18 17 17 18 18 19 20 19 17 17 18 18 17 47 65 63 65 90 100
81 83 95 96 56 59 65 67 63 63 65 65 60 55 50 44 38 33 26 25 23 21 20 19 19 20 19 20 21 22 20 18 17 16 18 18 18 29 70 66 65 88 100
63 65 62 63 72 74 72 63 56 53 48 42 38 37 33 28 26 25 24 23 22 25 26 25 25 23 23 22 22 20 18 17 15 14 17 19 17 20 64 79 70 81 98
65 65 67 66 64 59 52 43 39 38 35 31 27 27 24 30 28 24 25 24 24 25 27 27 27 26 26 24 22 21 20 18 16 15 15 18 18 19 40 76 80 80 95
72 70 64 56 49 42 37 34 28 28 30 32 32 34 38 29 29 29 26 26 25 23 23 27 28 28 28 27 26 25 24 23 21 21 19 15 17 19 21 68 77 62 97
62 53 43 40 39 36 33 32 34 38 37 38 42 41 35 32 30 30 32 33 31 30 28 26 28 29 28 29 29 28 27 27 27 27 26 22 15 18 23 35 78 62 86

GFSGL_250_rhum_006.txt.gz
RH
32 34 31 29 32 38 32 29 28 29 33 86 87 83 68 48 96 75 90 100 96 93 96 100 100 100 93 99 100 98 98 84 88 87 61 87 79 51 59 55 39 36 22
34 31 33 33 35 36 32 25 20 19 31 73 92 97 86 74 54 98 100 100 100 100 100 100 100 96 100 100 100 100 100 83 83 99 90 76 74 79 64 43 42 27 22
36 34 36 40 35 29 29 16 18 28 35 72 100 100 99 100 84 69 71 92 100 100 100 100 100 100 100 100 100 100 94 82 94 87 97 86 91 89 68 91 70 26 14
38 38 42 39 30 24 19 11 25 31 38 59 82 92 89 100 100 77 75 94 96 100 100 100 100 100 100 100 100 97 89 87 92 100 99 95 87 74 90 88 55 25 12
38 40 41 32 24 20 13 10 40 30 38 69 63 69 100 100 100 100 100 100 100 100 100 100 100 100 98 100 94 85 78 97 100 100 100 96 71 80 98 77 33 18 9
40 40 33 24 18 15 10 9 12 12 43 100 75 78 47 79 90 100 100 100 100 100 100 100 100 100 100 100 86 80 86 100 100 94 77 98 87 79 65 25 22 12 7
36 28 22 20 17 14 10 10 12 15 34 52 21 32 51 59 65 79 100 100 100 100 100 100 100 100 100 100 100 100 92 94 77 76 100 100 100 76 29 19 16 9 6
30 23 20 19 15 12 11 12 13 14 15 14 16 19 20 28 69 70 70 98 97 100 100 100 100 100 100 100 100 99 93 94 97 81 71 55 47 25 19 18 16 8 6
24 20 19 17 14 13 13 14 16 16 15 16 19 17 23 33 57 81 100 94 88 100 100 100 100 100 100 100 92 88 100 91 88 55 26 28 29 22 19 18 14 7 5
21 18 17 16 14 14 17 17 17 15 17 30 25 29 33 29 49 49 68 98 100 100 100 84 83 74 86 86 84 100 80 59 42 26 21 25 27 21 16 14 10 6 4
18 18 17 16 17 19 19 17 16 16 20 46 32 23 26 28 40 63 78 59 48 48 42 45 70 74 90 92 75 59 48 35 26 26 28 23 21 15 12 11 8 6 5
17 16 15 16 16 18 17 18 19 23 27 46 40 29 39 42 54 57 76 68 57 40 32 36 61 59 47 43 37 35 27 27 29 27 25 21 12 8 9 8 6 6 5
16 16 16 17 18 18 19 21 21 20 24 23 21 42 73 64 56 54 48 41 36 43 55 49 58 51 44 41 31 29 33 34 36 29 16 9 8 8 8 6 6 7 8
16 16 17 18 20 22 23 21 19 20 19 27 51 51 54 52 49 52 63 59 45 52 53 53 47 41 36 45 46 42 42 36 26 13 9 7 7 6 6 5 6 8 12
18 19 20 21 23 24 22 22 20 23 24 31 38 48 53 61 68 61 60 65 67 58 46 50 49 45 53 56 50 46 38 23 10 10 8 7 6 6 6 6 7 13 25
21 23 24 26 24 23 23 26 28 28 28 36 42 48 63 69 76 79 100 57 72 52 52 51 52 55 47 46 43 32 18 12 10 10 8 7 6 6 6 6 11 23 39
27 28 28 27 24 23 23 24 21 27 36 54 64 78 94 100 74 59 46 46 48 47 48 48 50 48 40 34 22 13 15 13 11 11 10 8 8 8 7 8 16 34 44
29 28 27 25 25 28 27 30 38 46 57 70 74 80 62 37 36 38 46 46 47 54 56 48 42 37 31 19 18 14 14 14 13 13 12 12 12 10 8 9 20 46 55
29 27 27 28 30 32 31 30 36 54 55 56 49 38 35 39 42 47 51 52 49 46 42 39 37 24 18 18 17 16 15 15 15 15 16 16 16 12 11 11 27 54 67
31 27 29 29 30 36 46 41 41 41 40 37 41 50 48 47 52 52 47 43 42 38 33 26 25 24 22 18 19 17 15 15 16 16 18 18 17 15 13 15 31 70 66
31 31 32 41 41 43 39 42 40 46 51 54 50 52 50 50 44 41 38 32 26 22 26 25 25 22 21 21 22 20 20 18 17 18 20 20 16 17 13 16 36 76 67
42 45 47 46 44 43 43 48 59 62 57 52 50 54 46 39 36 29 22 22 27 27 27 24 25 25 24 25 24 22 21 20 19 19 18 17 16 17 16 15 44 76 70
54 51 49 52 54 60 67 71 62 56 52 50 48 41 36 32 26 26 27 31 30 27 27 26 28 27 24 23 23 22 21 19 20 19 17 16 16 17 18 17 46 66 80
57 59 64 69 75 67 64 62 60 52 52 47 40 35 31 29 29 36 35 31 30 32 32 31 32 29 25 22 23 24 23 21 21 22 20 18 15 16 20 20 23 54 77
58 63 72 71 66 66 65 60 55 54 44 37 34 32 34 38 45 41 37 37 37 38 37 38 34 32 29 26 23 22 23 23 23 24 24 21 19 16 18 18 20 42 63
64 67 66 68 62 58 58 59 48 41 38 30 31 32 35 37 38 39 42 41 40 41 41 40 38 35 32 28 27 24 23 23 24 25 25 25 25 22 17 19 18 29 52

GFSGL_250_rhum_009.txt.gz
RH
26 30 33 32 32 34 33 38 43 36 28 24 14 28 28 42 36 34 47 66 76 91 95 96 93 100 100 100 100 100 100 100 100 100 100 100 81 79 90 58 65 81 68
28 31 32 34 37 36 37 41 42 31 23 18 11 26 34 35 42 66 62 50 50 48 64 74 100 100 98 100 100 100 100 100 100 100 100 100 83 89 95 100 96 68 43
29 31 32 38 41 40 44 47 36 25 21 17 14 32 18 25 58 56 44 62 66 67 69 79 100 100 100 100 100 100 100 100 100 100 100 96 92 100 100 81 67 58 92
31 33 37 42 42 43 44 33 27 23 19 15 12 17 35 79 80 72 41 44 52 88 100 100 100 100 100 100 100 100 100 100 100 100 100 100 100 94 90 80 100 100 100
35 37 42 44 45 43 35 33 24 21 17 13 21 45 52 60 61 38 17 18 25 37 46 90 100 100 100 98 100 100 100 100 100 100 100 98 99 93 94 100 100 94 51
40 44 47 49 42 36 36 30 22 19 16 12 16 51 40 28 25 44 30 28 27 39 48 51 80 98 98 100 100 100 100 100 95 96 99 100 100 100 100 100 73 42 28
47 50 52 51 42 36 33 25 19 16 15 14 13 13 42 53 37 22 19 37 35 37 40 49 68 79 100 100 99 97 97 96 100 100 100 100 100 100 100 95 49 26 23
51 53 53 45 40 35 27 22 18 16 15 14 14 16 20 19 16 16 20 34 43 48 54 55 66 76 87 78 59 50 56 82 100 100 100 100 100 65 43 32 30 24 22
52 53 46 44 38 30 24 19 16 15 15 16 16 23 18 16 16 18 24 33 54 69 65 72 77 85 84 76 64 60 67 64 77 100 81 63 44 44 36 31 26 21 15
48 45 39 35 30 25 20 16 16 16 17 16 17 18 20 22 21 23 34 35 75 94 81 84 76 57 46 57 50 65 74 60 62 57 53 54 51 36 31 26 18 12 8
45 40 35 29 26 19 17 16 16 17 18 17 18 21 21 21 22 36 68 70 92 92 86 56 42 52 48 40 41 48 54 53 45 46 41 42 36 31 26 16 10 9 6
38 30 28 24 18 17 16 17 18 18 18 20 22 24 24 27 40 56 70 94 82 61 44 40 48 50 44 68 72 49 44 45 40 42 40 35 27 20 14 9 7 6 6
32 29 21 19 17 16 16 17 18 19 20 23 24 25 26 30 39 53 58 34 30 32 42 41 38 36 38 54 42 36 38 41 42 39 34 25 19 11 9 7 6 5 5
23 20 18 18 17 18 19 19 19 20 26 24 25 24 22 23 25 27 26 24 29 33 33 38 33 35 36 38 41 40 41 40 38 32 22 14 10 8 7 6 6 5 5
20 19 19 19 19 20 22 24 24 27 26 26 26 24 23 24 27 23 25 30 39 33 34 33 36 40 42 42 40 40 42 37 32 20 11 11 10 9 9 7 5 5 6
22 22 22 22 23 24 26 31 30 29 28 27 26 25 25 26 29 30 35 37 37 37 38 40 44 44 41 42 44 40 34 30 17 11 9 11 10 11 10 6 7 6 8
26 29 30 30 29 30 31 31 30 29 28 28 27 27 30 32 34 38 39 40 43 46 46 46 43 41 39 38 35 30 22 13 12 13 12 11 11 12 10 9 9 9 11
32 33 37 35 33 34 32 33 34 34 33 32 33 34 36 39 40 40 42 46 44 45 43 42 41 38 37 28 22 16 12 13 15 16 14 13 12 12 12 12 12 12 18
42 46 42 46 42 41 42 44 42 37 36 38 34 38 44 44 44 47 46 45 43 44 42 38 35 27 21 21 16 14 15 16 17 18 17 15 14 13 13 14 15 13 22
54 58 51 47 48 47 44 42 43 43 38 44 45 44 48 45 50 47 47 44 45 40 31 24 23 20 18 16 16 17 18 18 19 20 17 16 15 14 14 15 17 15 24
55 53 55 63 74 62 53 46 46 46 50 48 46 52 54 50 49 46 44 44 36 27 22 21 22 20 19 19 19 20 19 19 20 23 20 16 15 15 17 17 18 16 31
58 65 65 68 75 68 55 51 54 58 55 49 45 49 50 48 45 43 40 33 24 22 27 33 27 24 24 25 24 22 22 20 20 24 24 21 18 16 16 17 20 20 25
66 83 70 70 76 65 59 62 65 60 56 57 56 48 46 44 44 40 35 25 24 27 29 30 30 31 31 30 28 25 24 24 21 23 23 22 20 18 16 16 18 20 21
95 89 49 59 81 75 68 71 74 72 78 73 64 50 49 47 43 37 28 28 29 30 30 32 36 34 34 30 27 27 26 26 25 22 24 23 23 20 17 16 19 21 21
94 80 64 78 100 98 94 81 79 79 80 67 61 48 48 44 38 29 31 32 31 31 35 40 41 39 35 31 28 25 26 26 26 24 23 24 24 23 21 19 18 22 21
62 71 78 62 99 100 90 85 73 68 61 53 44 49 46 40 32 33 34 35 38 41 41 41 41 39 38 36 34 30 28 25 22 23 22 23 23 24 24 23 20 22 22

GFSGL_250_rhum_015.txt.gz
RH
22 24 26 25 23 23 26 28 28 30 31 33 36 36 38 36 34 29 21 17 17 17 17 20 18 16 14 16 18 21 24 31 30 32 38 46 43 46 66 97 100 100 100
22 25 26 24 24 27 30 30 31 31 32 38 38 37 40 39 35 31 21 18 19 27 27 23 21 17 20 25 28 27 29 29 32 39 48 57 70 76 100 100 88 87 100
25 26 25 24 26 30 32 32 33 33 35 38 40 41 43 44 40 33 24 22 33 32 33 31 22 19 32 36 35 31 32 36 60 77 72 75 73 68 87 73 79 70 96
26 26 26 26 29 31 32 32 33 33 33 34 35 40 41 40 37 34 26 49 49 40 36 28 20 30 44 46 37 32 39 54 76 95 96 91 78 70 84 69 50 46 43
27 28 28 29 30 30 31 31 32 32 31 35 38 39 38 36 36 38 71 63 52 43 30 24 25 45 47 46 42 39 59 81 98 87 88 46 45 57 71 63 56 55 55
29 29 29 29 30 30 30 30 30 30 33 36 40 40 45 46 50 90 94 92 59 34 19 19 35 42 47 49 47 56 58 82 88 74 61 56 58 81 71 42 55 55 67
30 30 29 29 28 27 28 30 32 33 36 38 39 40 55 54 51 61 46 68 60 24 18 24 31 33 32 36 37 60 92 70 85 80 95 86 40 33 36 36 38 40 54
30 30 28 27 27 28 30 31 34 35 36 38 38 82 57 36 54 50 36 53 29 19 20 27 27 28 32 45 77 87 100 70 61 59 42 37 39 39 41 41 41 39 42
30 29 28 28 29 29 31 32 34 35 36 38 96 91 43 58 48 34 23 22 20 20 25 30 25 27 29 46 58 69 57 81 69 39 43 43 47 48 44 44 47 42 42
31 31 31 31 31 32 32 34 35 37 74 100 100 56 58 48 40 30 22 21 21 25 32 25 28 30 34 32 34 37 40 40 38 43 44 50 48 43 42 40 38 38 35
36 36 36 36 36 36 37 38 43 75 96 59 53 41 36 29 25 22 24 26 28 40 36 26 30 35 36 37 38 44 38 38 40 41 43 42 40 38 36 35 32 28 26
39 39 40 41 41 41 40 59 67 84 72 45 39 37 28 23 23 24 26 27 42 34 31 34 36 40 39 42 43 40 37 37 38 39 36 36 37 34 30 26 22 21 20
39 40 41 41 42 42 49 73 73 57 42 38 33 26 24 26 27 29 30 31 30 32 30 35 40 42 42 46 44 43 41 45 41 34 34 32 28 24 20 17 15 12 11
32 35 37 39 40 40 41 53 37 34 30 27 24 26 28 30 33 34 31 39 33 38 42 46 48 51 50 41 45 46 49 45 35 29 26 23 18 15 14 14 12 10 9
25 31 32 37 34 30 30 28 27 27 27 28 31 32 31 32 37 38 35 59 53 49 46 56 59 60 50 47 50 52 47 38 28 24 17 13 12 12 10 10 10 10 10
24 64 79 36 30 29 29 32 34 34 35 35 34 34 37 33 58 66 71 89 59 48 52 51 54 55 59 55 64 53 45 30 27 18 15 14 13 14 13 12 12 12 12
21 45 78 90 65 44 40 38 39 38 37 38 38 38 46 48 76 74 77 69 68 80 78 65 52 41 47 72 56 47 32 27 16 15 15 17 16 16 14 14 14 13 14
100 99 77 45 38 36 33 38 38 38 41 62 92 78 100 100 100 100 64 69 95 84 58 42 40 38 52 46 43 34 29 18 14 15 16 15 15 15 16 16 15 14 15
100 66 42 37 40 41 45 45 45 54 68 87 100 100 100 100 81 75 84 92 90 95 67 49 51 57 52 43 37 32 23 18 17 19 18 18 18 17 17 17 15 14 15
72 79 48 52 64 100 100 83 94 91 93 100 100 100 100 96 78 95 100 100 86 59 49 44 55 59 44 35 36 30 22 21 22 22 23 21 19 18 18 18 15 15 14
100 75 100 57 100 100 90 82 100 100 100 100 100 100 100 78 100 96 80 66 55 73 59 58 54 43 37 37 35 25 23 25 26 28 26 26 22 19 18 18 16 15 15
98 92 96 100 83 92 100 100 100 100 100 100 100 87 89 100 100 67 50 58 67 61 60 66 50 45 44 41 30 26 29 31 32 31 28 26 25 21 18 17 17 16 16
100 100 100 100 84 98 100 100 100 100 100 100 73 98 100 99 70 50 79 78 68 85 74 60 58 45 44 36 29 33 37 39 36 32 28 25 25 23 20 17 16 17 18
100 86 81 83 100 99 87 86 100 96 78 88 100 94 57 44 59 74 82 80 60 67 68 62 46 45 45 36 34 35 41 40 36 32 30 27 25 24 22 17 16 18 19
91 75 99 93 100 94 93 100 100 100 78 78 100 59 61 67 90 100 92 72 69 66 66 69 46 45 44 36 41 43 45 40 36 35 35 31 27 26 24 21 16 18 19
100 100 100 100 100 100 100 100 100 100 99 89 48 58 99 100 100 99 85 75 82 68 70 58 52 50 46 40 45 50 48 43 38 37 39 38 33 28 25 24 18 17 20

GFSGL_250_rhum_021.txt.gz
RH
30 34 40 24 19 18 19 20 23 26 26 25 26 28 28 29 30 30 33 35 35 37 47 79 70 67 55 43 27 22 23 22 20 18 19 21 28 29 35 33 29 40 33
32 39 42 20 19 18 19 22 24 26 26 26 26 28 28 29 28 30 32 34 38 50 72 88 69 66 57 38 27 24 24 24 22 23 23 25 30 37 34 30 43 61 66
18 18 22 18 19 20 21 22 24 26 26 27 28 28 29 29 29 31 36 39 39 83 100 100 96 82 65 44 30 26 27 27 24 28 34 37 37 53 45 40 54 85 66
20 20 20 20 21 22 23 25 26 27 27 28 28 28 28 29 30 31 34 36 58 83 100 100 100 96 64 40 31 28 29 29 30 32 39 50 42 48 51 77 84 64 64
24 24 24 25 26 25 25 26 27 28 29 29 29 29 29 30 30 31 33 35 39 65 96 100 100 100 58 40 28 30 32 30 30 33 65 41 35 48 65 100 70 54 92
30 31 31 30 27 27 26 27 28 28 28 28 29 30 30 31 31 32 34 36 40 89 100 94 100 100 51 34 30 32 33 37 38 29 34 33 43 46 45 43 46 49 54
36 34 34 33 33 32 32 31 30 31 31 30 31 31 31 32 32 34 36 41 81 91 84 88 100 77 48 32 31 35 35 32 29 30 41 46 50 42 45 42 42 41 52
39 37 35 32 32 31 32 32 32 32 32 32 32 33 34 34 35 37 40 99 83 80 93 99 100 71 44 33 35 37 40 42 43 49 46 49 52 61 52 43 45 58 64
39 40 40 38 37 36 35 34 34 34 34 34 35 36 36 38 38 42 99 100 100 100 100 96 100 70 42 36 38 38 40 42 48 59 53 56 48 40 41 41 43 48 45
42 43 43 43 40 40 38 35 34 36 37 37 37 37 38 39 42 70 97 100 100 100 100 100 100 54 46 40 39 40 38 46 67 71 70 58 44 39 39 45 42 39 32
40 40 39 41 41 41 41 41 41 40 40 41 41 41 42 42 45 50 54 66 100 100 100 100 95 71 52 43 40 40 43 66 91 91 76 51 42 48 37 36 30 28 27
12 14 15 19 23 24 29 33 34 35 37 41 43 44 45 46 51 46 68 96 100 100 100 100 94 60 47 45 44 41 69 81 95 72 50 43 45 38 30 29 26 23 18
9 8 7 7 8 9 11 13 15 16 21 26 26 26 25 36 43 61 100 100 100 100 97 86 64 52 46 41 42 51 90 90 63 46 50 52 44 31 29 27 20 15 15
16 13 11 9 10 9 11 26 11 10 16 36 58 100 100 100 100 100 100 100 100 90 87 77 67 50 43 44 64 86 81 74 48 39 54 55 36 27 24 20 14 16 18
16 10 27 68 80 91 76 51 67 100 100 100 100 100 100 100 100 100 100 100 100 97 95 77 59 49 48 46 60 77 83 86 61 66 52 48 32 25 20 14 16 18 19
12 54 81 99 100 100 93 87 100 100 100 100 95 100 100 100 100 100 93 100 100 100 93 78 65 49 53 44 75 87 91 74 57 65 70 60 31 25 18 16 18 19 18
96 96 77 99 99 93 85 88 100 100 100 100 100 100 100 100 100 99 100 100 100 100 92 71 50 45 41 51 68 61 84 78 70 62 67 51 31 25 19 19 22 21 20
92 79 100 100 100 96 94 100 100 100 100 100 100 96 99 100 98 98 100 100 100 100 84 58 40 43 47 59 56 94 82 48 75 76 66 48 38 27 21 22 23 22 21
100 100 100 100 100 100 100 72 86 95 100 100 93 98 100 100 100 100 100 100 100 98 67 42 43 45 55 56 70 98 82 54 80 85 63 47 40 30 25 24 25 23 22
98 100 100 100 100 100 100 100 75 100 100 100 100 100 98 96 100 100 100 100 84 48 40 51 52 50 54 70 100 78 68 59 90 80 64 47 49 37 31 24 24 23 22
100 100 100 100 100 100 100 99 94 73 87 95 88 75 43 68 100 100 97 48 34 33 44 53 55 58 70 94 86 77 76 84 84 61 55 46 55 40 35 25 25 25 24
100 100 98 100 100 100 100 100 100 100 98 89 71 47 38 42 39 37 30 38 58 64 64 59 68 79 75 99 75 83 58 75 57 59 59 56 62 45 41 30 30 26 26
100 100 100 100 100 100 95 80 79 79 68 55 36 36 39 41 42 50 54 77 82 68 63 52 67 96 94 70 80 78 67 83 71 59 54 59 60 46 46 37 33 30 26
100 100 100 100 100 99 97 86 79 67 52 46 48 44 45 48 66 79 72 68 58 52 46 86 100 98 82 67 73 72 84 85 62 65 60 62 65 55 48 42 38 35 29
100 100 100 100 100 97 90 83 73 61 56 59 53 48 48 68 74 82 81 72 71 84 84 66 77 74 66 80 77 86 95 74 69 63 72 66 69 60 50 45 44 41 33
100 100 100 88 87 92 80 67 62 60 71 68 67 63 70 83 86 73 68 75 74 61 68 78 80 70 76 88 97 100 82 76 62 64 67 68 63 61 52 50 45 46 37

GFSGL_250_rhum_024.txt.gz
RH
52 52 52 36 29 27 23 22 19 19 20 22 23 23 22 23 26 29 29 29 31 33 34 35 42 66 92 79 98 90 76 48 37 33 33 32 34 32 39 41 35 32 31
82 66 56 76 35 37 25 18 20 19 21 22 25 24 24 25 28 30 29 28 30 32 33 36 55 81 100 92 100 86 84 64 41 37 36 37 36 41 36 39 36 33 31
42 68 100 77 32 29 19 19 20 20 22 24 25 27 27 27 28 29 29 29 31 32 38 47 86 100 100 100 100 100 93 75 50 47 39 38 34 38 46 46 48 52 55
33 59 99 78 41 22 20 20 21 22 23 25 25 25 28 28 28 30 30 31 33 44 48 54 69 100 100 100 100 99 97 85 79 57 41 40 43 61 66 65 63 57 51
26 67 90 76 57 32 24 24 26 26 25 26 27 28 29 30 30 31 32 33 34 38 39 47 63 84 100 94 95 100 96 94 82 53 47 47 64 64 70 82 83 73 57
35 32 34 35 36 35 32 29 31 31 31 31 32 31 32 31 31 31 33 35 37 38 39 43 60 94 96 59 74 78 100 100 72 60 47 46 64 76 77 61 37 37 46
32 34 36 37 37 33 34 37 35 33 33 32 32 32 33 33 34 35 36 39 40 41 41 44 50 78 58 75 100 100 100 97 70 52 45 49 85 66 61 46 39 36 45
38 31 33 34 34 34 33 32 31 33 32 32 34 35 36 36 36 37 38 40 42 44 45 46 56 52 81 94 100 100 100 85 63 50 46 50 56 68 60 46 37 33 34
47 50 44 42 40 37 35 36 38 40 38 37 36 36 37 39 39 40 42 44 45 50 52 49 41 63 90 100 100 100 94 77 66 57 49 48 55 52 43 42 36 31 28
14 22 38 42 40 41 41 40 37 38 38 40 41 41 44 44 44 45 44 42 47 47 41 67 93 100 86 82 100 100 86 76 69 64 54 45 46 39 38 37 31 29 24
18 12 11 19 24 25 25 31 31 33 28 26 20 28 33 33 35 31 28 26 43 85 100 100 80 72 93 100 99 96 82 71 80 70 51 42 40 46 49 39 31 30 23
17 15 14 13 12 10 11 10 11 11 9 9 10 11 12 14 13 16 27 100 100 100 99 98 92 89 97 88 94 74 86 86 83 62 49 42 42 51 46 37 34 31 23
17 16 17 23 23 99 17 16 8 6 7 8 48 55 71 86 96 100 100 93 100 95 99 91 83 92 100 100 100 100 100 100 82 69 46 40 45 42 46 43 40 30 24
21 18 16 22 29 23 15 16 9 9 11 67 100 74 84 92 100 100 100 100 99 100 100 98 92 83 100 100 99 100 100 99 92 74 43 36 38 44 46 37 38 31 22
31 25 21 28 29 24 20 98 64 61 50 94 63 90 100 100 97 100 100 98 100 100 100 100 100 100 100 100 96 100 100 99 86 49 40 36 40 43 40 45 41 32 24
31 27 24 28 21 19 14 45 75 85 99 92 100 100 100 100 100 99 100 100 100 100 99 100 100 100 100 82 95 100 100 100 84 38 39 41 41 46 42 50 42 38 27
27 32 34 22 20 16 48 100 100 100 100 100 100 100 100 100 100 100 100 100 99 100 100 100 90 100 98 73 100 100 100 90 41 42 38 38 44 53 46 57 51 39 30
25 40 48 34 22 50 94 100 92 100 93 100 100 94 92 100 100 99 100 100 100 100 100 91 100 100 94 94 100 100 97 32 41 43 39 39 45 55 59 68 51 41 36
31 76 90 59 53 69 88 100 100 100 100 100 100 100 100 100 100 100 100 100 100 100 99 96 95 75 100 100 100 72 37 44 50 40 34 35 47 67 70 65 46 47 41
87 100 100 62 66 57 60 80 100 92 97 100 100 100 99 100 100 100 100 97 99 100 96 66 77 99 98 54 40 42 44 46 42 37 35 40 58 76 75 65 49 50 46
100 100 69 79 100 100 100 100 82 78 100 85 100 100 100 100 100 100 83 79 66 60 80 78 100 97 52 40 38 39 46 41 31 31 33 48 75 94 86 62 50 51 51
90 95 100 100 100 100 100 99 78 71 94 100 95 99 100 100 76 97 100 100 94 85 100 100 90 52 39 39 40 42 41 34 35 30 36 51 62 77 76 60 50 49 58
89 100 100 100 100 100 100 100 100 100 91 92 97 100 100 83 100 100 100 100 100 100 95 68 44 52 47 42 44 43 48 47 49 48 54 59 80 90 77 69 51 53 51
92 98 98 98 100 100 100 100 100 95 87 99 84 83 87 100 100 100 100 99 81 73 64 66 58 53 50 55 54 52 48 60 56 51 50 62 64 70 72 73 55 51 53
91 100 88 100 100 100 100 100 100 100 100 100 100 100 100 100 100 97 93 82 78 70 57 57 60 52 56 58 54 54 70 70 71 65 53 48 64 71 78 73 60 61 53
88 78 81 98 97 99 90 100 99 99 100 100 97 92 90 86 82 77 75 73 69 63 58 54 52 59 68 67 58 53 60 54 63 71 55 61 64 70 90 64 64 68 58

GFSGL_250_rhum_027.txt.gz
RH
37 40 42 50 55 59 58 36 32 36 31 25 20 20 23 25 26 25 25 27 28 30 32 33 35 37 40 44 50 57 72 55 57 77 73 99 78 60 57 49 57 53 52
47 47 47 56 63 75 70 94 38 39 22 19 20 21 22 24 26 26 26 27 29 31 32 33 35 38 40 42 55 59 66 54 46 64 99 100 85 71 68 57 57 58 70
38 42 43 48 88 92 97 100 42 30 21 19 20 21 24 25 27 28 29 30 31 32 33 34 37 39 42 43 46 62 57 45 80 100 100 100 85 68 70 68 65 73 47
28 30 31 32 34 32 89 96 62 41 25 26 23 24 27 28 29 31 31 32 33 34 34 36 38 40 42 46 47 59 48 56 85 98 100 90 79 71 81 79 68 59 48
39 45 46 41 33 24 25 61 80 66 47 37 29 28 29 30 28 30 31 32 34 36 37 38 40 43 44 40 44 56 65 74 100 100 100 89 83 88 92 78 75 51 44
26 28 25 25 28 28 26 26 32 30 27 31 32 32 34 30 25 29 33 35 36 38 41 42 44 45 35 40 56 70 66 68 95 92 81 94 85 100 91 85 70 40 36
34 34 34 34 34 34 34 35 34 34 34 34 33 31 29 27 29 33 37 43 43 43 46 46 43 28 39 72 59 54 66 65 63 72 90 97 100 100 99 96 64 36 34
48 46 43 39 35 30 32 32 32 32 32 32 32 33 34 35 38 40 41 43 45 47 42 35 28 34 94 56 58 52 66 64 79 95 90 99 100 100 100 96 62 38 33
18 22 34 43 47 48 48 46 45 44 45 44 43 45 44 44 44 42 38 37 37 26 27 25 37 100 77 57 53 50 55 58 80 99 86 100 100 100 100 92 42 39 34
17 15 13 12 12 12 12 11 12 14 14 18 26 36 36 33 27 20 16 13 18 22 42 72 100 100 100 83 70 53 60 73 90 93 99 100 100 100 100 78 43 40 31
22 22 19 17 17 17 16 16 38 79 51 14 13 14 16 13 10 8 21 56 73 94 100 87 99 97 98 100 100 95 77 83 94 70 84 100 100 100 100 42 41 33 31
32 30 27 26 23 18 19 19 77 84 20 41 74 31 13 9 8 46 80 96 94 100 100 100 100 100 100 100 100 100 96 98 100 83 85 100 100 100 75 42 40 33 30
31 36 38 35 32 26 24 21 21 22 99 100 100 51 44 97 42 100 100 100 100 100 100 100 100 100 100 100 100 98 97 100 100 93 88 100 100 75 50 43 34 31 31
29 29 33 38 36 32 28 22 27 25 83 100 95 38 80 86 100 100 85 84 96 97 96 100 100 100 100 98 100 93 100 100 100 81 100 100 91 63 49 37 27 27 25
25 25 31 37 38 34 34 33 28 28 77 52 41 69 74 70 95 97 100 100 100 100 100 100 100 100 100 100 99 92 100 100 100 91 100 100 92 83 54 30 28 30 28
24 27 27 31 35 28 31 38 34 28 29 62 53 69 85 86 100 100 100 100 100 100 100 100 100 96 100 100 99 100 100 100 96 100 100 100 99 68 36 32 28 28 28
22 31 36 47 42 26 35 25 28 28 22 17 22 68 84 90 99 100 100 100 100 100 100 100 100 100 100 100 100 100 100 100 100 100 100 100 99 63 33 31 26 24 26
41 53 57 88 48 35 29 29 32 18 18 30 59 62 84 100 100 100 96 100 100 100 99 100 100 99 100 100 90 100 91 100 100 99 100 100 95 53 34 30 25 21 25
66 79 91 95 39 32 31 31 30 29 92 100 100 95 100 100 100 92 96 100 100 100 100 100 99 100 100 100 100 100 100 96 91 100 100 100 66 39 32 26 25 20 24
83 86 56 34 34 32 40 48 37 86 100 91 96 87 86 74 78 99 100 100 99 100 100 100 100 100 100 100 100 100 100 99 98 100 100 92 62 37 29 26 26 22 26
77 70 47 33 22 46 76 89 80 87 100 100 100 100 100 100 62 52 65 87 86 94 96 90 100 100 100 100 100 100 100 100 100 100 84 57 45 41 33 30 26 28 30
60 68 64 34 28 60 89 100 100 100 100 100 100 99 100 100 100 73 48 60 64 66 86 91 100 100 86 100 100 100 100 100 89 82 66 52 45 37 34 31 26 33 30
76 97 57 35 29 89 100 100 100 100 100 100 100 100 100 100 100 100 87 64 52 62 66 67 86 99 100 100 100 100 94 84 76 66 57 45 40 36 32 34 31 40 38
78 60 52 35 32 78 100 100 100 100 100 100 98 100 93 96 100 100 100 100 70 65 76 68 95 100 100 100 100 96 79 78 67 59 55 44 44 35 36 41 41 48 46
65 56 54 54 55 57 81 97 91 94 93 94 96 100 92 84 79 93 100 100 100 100 100 91 81 100 100 100 82 75 70 70 64 62 52 45 46 38 42 55 51 56 53
67 54 67 78 77 85 88 98 100 100 100 95 91 100 98 100 91 100 97 100 99 94 99 97 96 97 100 89 90 85 68 58 56 47 44 40 39 39 48 60 55 71 57

GFSGL_250_rhum_030.txt.gz
RH
34 32 32 32 36 37 50 56 59 60 64 35 32 27 19 19 20 22 25 27 29 31 32 32 34 36 38 42 44 38 38 43 56 54 42 57 68 85 95 86 96 100 88
34 31 34 37 41 45 52 60 68 98 92 94 32 24 20 20 21 24 27 29 31 32 31 32 35 37 42 45 45 34 36 57 62 48 42 63 76 98 100 94 100 98 76
30 31 34 38 42 44 47 49 65 43 41 81 56 35 26 26 34 27 28 32 33 32 32 33 37 41 44 46 40 34 44 76 43 43 52 66 88 100 93 94 100 99 76
26 31 35 41 46 42 40 38 32 32 32 70 85 82 67 47 33 31 32 34 35 32 35 36 40 46 46 40 32 26 56 68 45 48 64 52 62 100 87 98 99 78 63
24 25 29 31 30 30 30 34 40 41 26 23 27 29 29 27 30 32 33 34 35 36 40 43 44 46 45 31 25 44 90 60 44 47 56 54 69 80 66 100 99 68 65
35 22 24 28 30 35 39 34 26 24 24 28 33 34 36 35 32 31 34 35 36 37 40 48 49 40 31 25 30 78 72 65 45 51 84 96 65 47 90 100 98 76 77
39 36 31 30 30 29 30 31 31 30 31 32 31 31 32 32 32 33 36 40 43 46 47 46 35 21 20 26 57 70 67 66 51 59 86 79 86 84 100 100 89 84 74
37 37 37 36 36 35 33 32 32 33 39 44 43 44 43 42 43 43 41 41 43 42 38 26 22 13 28 72 96 83 94 78 71 82 77 85 87 97 100 99 100 88 66
42 43 41 40 40 31 29 26 22 19 19 18 18 17 17 14 14 15 28 15 14 17 14 15 15 70 100 100 100 100 99 100 84 97 65 96 100 97 100 100 98 97 85
13 12 13 17 17 17 17 15 15 15 15 16 17 38 100 100 100 99 34 18 21 19 15 18 97 98 74 94 93 93 100 100 100 100 66 93 100 93 76 100 100 100 99
22 25 26 24 21 22 22 18 16 16 18 19 26 100 100 97 68 85 88 57 70 40 17 91 66 94 100 100 100 100 100 100 100 100 90 100 100 98 100 100 96 100 97
27 28 28 28 25 25 25 23 19 19 22 24 23 33 62 49 47 52 96 83 78 100 95 97 63 82 100 100 100 100 100 97 100 100 100 100 100 100 95 63 95 100 96
30 27 22 20 18 21 23 23 23 20 25 26 27 27 31 32 33 85 97 48 72 100 100 100 99 100 100 100 100 100 99 100 100 100 100 83 98 100 98 100 100 100 100
25 23 21 21 17 19 19 20 24 22 24 23 19 22 26 29 40 96 86 56 74 100 100 100 100 100 99 100 99 100 100 100 100 100 92 78 100 76 100 100 100 100 85
19 19 18 18 16 14 15 20 21 18 19 25 29 21 26 29 33 79 87 67 84 100 99 100 100 100 100 92 100 100 96 100 100 100 98 99 93 100 100 100 100 100 63
19 17 17 18 19 17 17 19 25 26 27 19 31 31 26 41 43 38 71 54 87 100 100 100 100 100 100 94 100 93 100 100 99 100 85 60 95 100 100 100 100 88 66
22 20 18 19 19 18 18 20 21 25 34 35 41 23 28 40 49 35 25 43 96 100 100 100 100 100 100 100 81 67 74 74 97 59 70 100 100 100 100 100 96 80 63
26 26 23 18 18 14 15 28 37 54 28 34 34 24 25 35 32 24 26 50 86 92 100 98 98 98 80 98 88 100 88 99 100 100 100 100 100 100 100 99 89 78 70
25 27 24 18 17 18 16 25 45 32 26 27 30 28 38 87 100 100 100 81 99 100 100 100 100 96 90 87 90 100 93 100 100 100 100 100 100 100 100 89 80 75 67
39 37 32 27 23 27 35 25 25 28 23 25 32 33 72 94 100 100 100 98 83 72 95 82 69 78 83 99 85 75 90 100 97 100 100 100 95 100 99 90 85 78 67
100 100 100 92 84 78 80 61 43 28 31 23 34 63 98 100 100 98 100 100 100 100 100 100 100 87 81 80 74 75 72 92 95 100 99 78 94 92 100 94 88 76 69
84 96 99 84 80 72 71 50 46 28 30 20 30 84 100 100 100 100 100 100 100 100 100 99 100 100 100 85 85 82 100 95 100 100 78 63 70 63 85 93 92 87 74
98 93 79 56 49 48 44 39 35 30 25 20 23 82 99 100 100 100 100 100 100 100 100 100 100 100 100 100 100 100 100 100 100 91 97 86 96 88 98 96 92 78 70
61 58 63 62 52 42 29 23 20 21 22 21 27 55 96 96 100 100 100 99 97 100 100 100 100 100 100 100 100 100 100 100 97 100 100 100 100 100 95 80 69 58 55
84 66 57 52 35 34 33 29 24 19 22 18 30 44 77 93 94 99 100 100 100 98 99 100 95 97 97 93 94 95 98 87 100 99 100 100 100 100 89 80 65 59 48
84 91 75 50 44 41 32 53 89 86 48 26 25 42 53 83 98 98 93 94 100 98 93 99 98 97 90 90 88 83 75 74 84 97 95 83 81 80 66 60 58 50 45

GFSGL_250_rhum_033.txt.gz
RH
60 37 30 28 27 28 27 31 35 46 53 64 88 98 77 32 29 23 26 30 28 27 29 31 32 34 38 42 46 47 32 28 47 42 42 42 43 56 91 100 94 85 85
44 41 29 27 26 26 32 35 50 58 62 69 66 43 62 82 38 32 33 40 30 29 30 32 34 34 37 42 51 50 25 27 52 43 49 48 57 38 68 100 94 91 88
22 39 33 26 26 29 33 35 41 46 46 49 39 31 32 59 78 74 52 34 30 32 32 33 34 35 39 44 47 38 20 35 53 44 47 52 55 52 86 100 61 100 61
24 31 33 32 29 32 35 37 42 45 41 37 31 35 38 26 25 24 28 30 32 31 28 31 34 38 43 45 40 28 16 36 70 52 52 53 61 58 93 100 55 98 98
26 28 29 28 30 31 33 36 41 40 36 28 33 41 29 23 28 33 34 33 32 34 35 38 43 45 45 43 36 18 23 42 54 66 72 77 66 58 94 100 96 100 84
20 21 21 23 25 26 28 30 28 27 27 30 30 25 29 33 33 33 36 40 43 43 43 44 38 34 29 19 14 22 76 70 71 73 99 91 76 61 76 76 98 71 100
45 80 100 54 23 22 21 22 26 28 25 26 30 33 34 34 36 40 41 38 32 29 27 23 29 25 14 10 17 99 90 66 65 70 100 100 85 74 74 59 69 64 100
25 27 27 50 71 56 39 32 29 31 33 35 40 40 36 28 21 17 16 17 19 20 26 56 35 16 13 19 100 67 68 72 81 79 95 100 100 95 100 70 64 66 100
36 36 33 32 32 31 32 37 41 42 35 29 18 14 15 17 18 18 17 21 93 96 90 48 59 62 30 77 90 99 100 100 100 99 100 100 100 100 100 74 53 61 84
42 43 44 45 43 38 39 32 23 17 15 16 16 16 15 17 21 26 32 86 100 100 87 51 85 54 87 100 100 100 99 100 100 100 100 100 100 100 100 87 54 58 100
23 23 24 23 22 20 18 16 17 18 18 18 18 18 18 18 20 22 29 58 78 59 32 54 64 78 96 100 100 100 95 88 97 100 100 99 94 99 99 90 50 74 96
16 16 17 19 22 22 21 20 20 22 21 18 17 18 18 19 22 22 20 26 23 19 23 27 66 92 86 100 100 100 99 100 100 100 100 100 81 69 100 76 46 74 100
24 21 23 21 20 19 24 24 19 17 16 16 16 17 16 15 22 27 23 23 26 24 22 17 51 70 96 100 100 90 81 77 99 100 100 100 97 58 85 55 71 78 100
28 26 26 25 20 24 24 20 16 15 14 14 14 13 13 13 16 20 28 35 28 25 26 20 42 88 100 100 100 100 100 100 98 100 80 57 52 82 74 90 85 88 100
24 25 23 19 16 17 17 15 14 14 14 18 18 14 15 15 18 23 26 26 28 32 23 20 29 99 100 100 100 100 100 100 96 100 71 57 80 74 72 98 99 95 94
25 24 25 26 24 21 20 15 14 15 14 15 15 13 15 22 24 27 41 40 41 36 26 36 26 100 100 100 100 100 100 96 98 86 67 65 70 70 63 66 89 94 100
28 27 24 23 19 19 20 19 15 14 14 14 14 15 16 16 19 34 41 34 35 28 25 21 43 94 92 79 100 100 100 98 100 63 73 74 80 99 100 100 100 100 100
22 21 21 22 21 21 22 22 19 18 20 22 20 19 18 15 12 13 30 30 31 36 27 32 55 78 85 100 100 98 87 80 94 75 81 81 63 94 100 100 100 100 100
33 34 31 27 23 21 18 18 18 17 19 18 21 17 16 15 23 20 25 24 42 92 100 100 100 96 86 98 100 84 79 77 76 98 90 91 96 100 100 100 100 100 100
22 23 24 25 25 25 24 22 21 21 17 16 16 16 28 29 30 22 22 21 68 100 100 100 100 98 92 89 84 94 93 100 99 98 100 100 100 100 100 100 100 100 100
23 20 18 17 16 17 17 17 16 14 12 14 16 20 30 32 21 20 20 19 67 100 100 100 58 100 100 100 100 100 100 79 86 100 100 100 100 100 100 100 100 100 100
25 24 27 27 24 26 27 23 32 50 47 46 40 39 32 28 25 16 20 20 40 94 100 96 100 100 100 100 100 100 100 98 100 100 100 100 100 100 93 84 99 100 100
52 51 51 67 63 57 50 50 65 79 68 55 50 41 34 34 33 23 16 21 22 42 100 92 100 100 99 100 100 100 99 100 100 100 100 100 92 92 100 100 100 100 97
62 64 65 72 79 76 75 65 59 53 54 51 45 49 32 24 26 18 13 14 17 21 64 100 100 100 100 100 100 100 100 99 99 100 99 99 100 100 98 87 99 100 100
48 55 57 61 35 42 64 71 48 39 53 53 44 31 20 18 18 23 23 20 14 17 17 59 98 100 100 100 100 100 100 100 100 100 99 100 98 100 100 100 100 100 91
48 31 32 32 33 33 44 50 54 40 22 19 18 15 15 23 32 30 30 39 37 34 28 32 62 100 100 100 100 100 100 100 100 100 100 100 100 100 100 100 95 89 94

GFSGL_250_rhum_036.txt.gz
RH
42 64 60 52 52 29 24 27 26 20 24 23 54 78 82 44 37 55 88 50 54 53 34 27 30 31 31 32 35 41 46 41 21 39 39 36 37 48 62 51 50 43 48
58 77 78 67 43 27 26 28 26 28 31 47 59 50 50 39 34 36 54 73 52 36 30 33 33 31 31 36 40 43 41 34 16 28 48 46 44 57 50 48 45 43 53
52 76 74 54 33 27 27 27 29 34 42 48 48 46 42 36 32 41 36 27 26 29 33 30 29 28 32 35 39 33 23 17 13 34 53 58 67 71 69 60 62 44 53
50 54 44 45 47 35 31 30 32 34 37 40 44 45 38 33 33 40 30 27 29 29 28 27 28 32 33 32 26 26 18 13 18 46 61 64 82 84 94 62 61 44 44
27 32 18 18 27 44 38 35 33 34 35 36 40 36 30 42 39 28 25 26 29 29 30 33 34 35 26 24 32 26 22 12 81 61 50 60 93 98 100 83 60 53 52
28 27 8 14 19 35 35 34 32 29 30 31 31 27 28 27 24 26 30 37 38 33 27 20 16 17 23 54 43 23 13 74 59 80 83 96 91 94 97 100 63 79 64
14 10 14 18 22 22 22 22 24 25 25 24 22 25 25 24 29 37 38 28 18 13 12 14 17 30 63 67 50 48 53 94 100 100 100 100 94 97 97 100 100 69 60
14 15 16 19 21 31 84 86 48 34 44 49 38 31 28 36 34 26 17 18 20 18 15 16 22 80 92 69 58 76 97 100 97 100 100 100 96 93 89 95 99 51 54
13 14 23 38 43 40 31 28 41 53 43 32 31 38 33 20 16 16 17 17 21 18 18 19 36 64 74 51 40 59 100 98 100 100 100 92 100 96 82 94 54 48 45
22 22 24 28 27 26 28 31 34 34 37 42 34 24 18 19 19 17 16 16 17 20 16 20 25 27 24 19 42 54 100 88 99 99 100 100 100 78 78 76 63 76 53
45 42 38 37 37 38 40 42 43 40 35 25 19 19 18 17 15 14 14 12 14 12 12 14 18 28 28 24 20 60 97 100 100 100 100 100 80 68 70 95 88 71 54
28 40 43 42 40 40 39 35 30 22 18 21 19 18 16 14 13 12 12 12 11 10 15 18 28 36 49 30 26 24 76 97 100 100 100 99 98 99 97 83 100 96 63
16 15 15 16 18 17 17 19 20 20 18 21 20 16 14 14 14 14 16 16 15 11 14 16 25 26 36 45 30 35 56 100 99 100 100 100 100 100 88 51 45 64 72
38 33 25 25 24 25 26 24 21 16 18 19 17 14 12 13 14 14 14 16 17 15 10 14 25 26 33 39 44 35 71 94 100 100 100 96 95 87 67 98 63 64 73
33 32 32 31 31 28 24 23 22 18 17 16 16 17 14 13 12 15 13 16 19 18 13 16 19 27 28 38 31 39 77 95 100 100 80 91 93 100 100 100 90 99 96
26 28 27 26 24 23 21 21 22 23 21 20 18 19 15 14 14 13 12 14 14 22 18 14 24 25 34 66 30 25 90 100 99 94 98 100 96 100 100 97 86 100 97
24 22 20 23 24 26 24 25 24 21 21 22 18 15 16 16 15 12 12 16 20 16 13 32 39 25 39 83 100 68 60 100 100 100 100 100 100 100 100 92 76 77 98
28 26 25 22 20 18 17 18 18 18 16 13 14 14 13 12 12 12 13 14 15 15 12 21 32 21 48 93 100 100 95 90 94 94 86 89 100 94 99 78 100 100 100
24 24 25 25 25 24 24 21 18 16 14 14 14 14 15 15 15 16 18 19 15 11 13 14 12 16 41 84 97 100 70 65 73 89 100 100 81 94 89 100 99 100 100
26 25 24 23 22 21 20 19 18 18 18 18 18 17 17 15 14 14 13 11 10 10 18 19 17 12 20 72 91 100 100 100 100 100 100 100 100 100 88 100 100 100 100
25 25 24 24 25 24 23 23 23 22 22 22 21 17 13 13 11 11 12 12 11 16 29 23 21 16 12 58 80 100 92 100 100 100 100 100 100 90 82 100 100 100 100
29 28 28 31 29 26 26 25 24 25 23 20 18 17 15 15 14 16 13 10 16 19 20 22 19 12 11 36 85 100 100 100 100 100 100 100 100 98 92 89 100 100 100
48 45 42 38 35 32 30 27 25 24 22 20 20 19 17 20 33 33 22 16 17 14 11 12 10 11 11 17 25 89 98 100 100 100 99 100 100 100 100 99 94 89 98
52 50 48 45 43 38 35 31 31 31 29 29 29 34 37 30 27 20 30 24 19 17 14 14 13 12 14 19 15 27 70 88 98 100 99 98 100 100 98 95 93 100 100
49 50 55 54 50 53 58 59 54 47 46 45 41 30 32 29 30 33 31 26 20 16 14 13 16 21 25 24 26 24 34 51 55 98 100 100 100 100 90 79 100 98 100
49 53 55 54 50 48 50 52 44 48 45 47 35 29 39 32 33 40 30 21 22 21 21 23 30 34 46 47 36 35 37 47 75 82 100 100 100 100 100 100 100 100 99

GFSGL_250_rhum_042.txt.gz
RH
29 19 17 21 20 14 14 14 15 15 17 21 19 17 28 59 78 54 45 38 26 29 24 21 22 25 30 36 32 24 20 18 16 36 54 34 28 20 23 47 50 58 60
26 26 18 20 22 14 21 26 29 26 20 25 26 21 30 46 52 53 46 41 32 32 24 23 25 32 32 20 15 14 15 16 51 62 46 17 17 27 24 52 62 56 49
22 32 25 20 25 20 25 28 33 41 26 23 26 24 28 37 47 45 43 38 36 29 24 27 31 31 15 14 14 14 17 36 66 74 68 25 76 60 57 54 50 41 48
22 26 36 24 22 26 29 32 41 53 40 26 26 28 29 31 35 37 34 34 29 26 30 32 34 15 15 14 12 14 16 57 85 81 99 90 89 79 56 49 52 41 44
16 24 35 42 24 22 28 34 50 64 48 30 30 31 31 31 31 32 31 28 24 41 33 37 18 15 16 13 12 14 18 25 53 95 100 100 100 99 74 70 55 62 56
12 20 25 41 42 24 27 42 70 73 44 34 33 34 34 32 28 29 26 23 51 39 35 18 17 16 15 14 15 22 23 24 24 34 100 99 98 100 72 69 61 80 61
11 12 23 27 41 48 45 54 78 78 65 55 38 30 32 36 30 24 24 61 47 37 24 16 16 13 13 11 11 14 16 28 33 30 44 98 100 98 68 59 65 75 82
21 13 14 25 30 47 58 61 66 65 52 37 14 16 28 26 36 75 78 38 39 34 18 18 14 12 11 11 13 15 13 15 22 30 36 38 88 100 88 80 79 95 97
42 18 15 16 24 29 35 52 43 45 39 22 17 24 20 66 50 30 36 41 41 24 18 16 11 11 11 11 14 29 29 22 33 30 37 39 83 100 100 83 67 79 100
44 42 20 20 22 25 24 25 33 35 36 15 17 18 29 41 30 36 41 38 30 18 19 15 10 10 10 11 17 24 25 21 32 41 48 42 40 96 100 90 59 74 89
88 54 35 20 24 25 24 28 34 35 20 13 15 20 43 35 36 43 41 28 19 22 20 11 11 11 13 14 15 22 23 20 22 46 55 85 41 60 88 80 72 69 70
90 88 51 40 24 20 22 24 23 18 13 13 19 34 37 33 42 38 27 21 17 21 18 12 11 12 14 14 16 29 29 20 21 45 46 58 90 81 95 99 100 100 100
77 54 48 46 45 41 31 26 26 29 33 36 39 39 41 43 38 25 21 18 17 17 16 15 15 18 15 19 21 31 18 19 21 29 42 67 94 100 100 95 99 100 100
26 34 41 43 44 44 44 42 40 43 44 44 45 44 41 37 26 20 21 19 15 15 17 20 24 21 19 17 18 17 18 18 14 20 36 65 96 100 100 86 84 94 100
33 28 24 27 34 38 40 41 40 42 42 41 37 33 26 21 19 18 21 19 19 21 29 30 26 19 20 15 14 15 12 12 14 10 22 45 98 100 94 100 95 78 92
31 31 33 33 26 20 20 21 22 24 24 22 21 20 21 20 20 22 23 23 23 26 23 19 20 15 15 15 14 12 11 11 13 9 8 13 22 33 62 92 100 70 72
38 40 35 29 32 30 28 24 23 21 18 18 17 18 21 22 25 27 32 27 24 21 23 20 17 17 15 14 15 15 14 14 13 13 10 10 11 17 33 65 98 75 84
45 40 42 40 35 32 28 28 32 34 34 31 31 30 29 30 31 28 24 23 28 35 24 21 17 16 17 17 17 19 18 17 15 14 10 10 11 11 21 50 94 100 100
50 52 43 40 36 34 34 33 33 33 37 44 40 31 27 26 26 25 32 49 52 42 20 16 16 16 15 17 16 17 16 17 17 14 12 9 8 7 17 59 99 95 100
45 51 51 42 39 38 38 37 38 35 31 37 51 55 70 59 79 72 66 33 20 16 14 16 17 17 17 17 18 18 19 20 19 15 13 12 8 7 31 60 92 100 100
42 44 50 51 51 51 51 48 44 46 49 62 84 88 93 87 70 40 22 19 18 18 17 17 18 18 20 22 21 20 19 20 18 16 13 15 14 8 9 45 100 100 100
48 50 51 53 47 43 41 44 46 46 57 66 83 77 58 38 31 27 23 21 20 20 21 21 23 25 26 24 23 22 21 22 19 15 21 19 14 10 9 30 100 100 100
42 53 52 50 50 47 42 38 36 37 39 38 38 38 37 35 31 28 26 25 25 26 26 26 27 25 25 25 25 26 22 21 20 20 28 24 18 13 12 11 46 82 86
45 45 59 60 56 50 47 44 40 38 37 36 35 34 32 32 31 31 33 29 26 26 24 25 24 27 30 27 25 24 22 20 21 39 33 31 28 21 27 21 17 16 17
74 58 40 36 42 46 48 48 44 44 46 42 39 35 33 33 31 29 28 24 23 26 26 29 35 29 26 24 27 21 21 25 26 34 38 41 53 36 26 24 24 24 26
65 70 71 64 55 46 40 36 35 35 37 39 36 34 30 28 29 27 27 30 37 35 31 25 25 28 26 27 26 23 27 25 35 39 48 89 93 86 82 50 38 33 42

GFSGL_250_rhum_045.txt.gz
RH
20 19 25 17 20 24 19 19 19 18 17 15 13 13 14 15 16 38 71 55 48 41 36 32 28 31 35 27 14 14 13 13 20 26 50 70 74 21 22 19 22 45 49
25 18 22 21 18 25 22 18 18 16 14 15 18 21 21 16 17 20 28 40 42 38 36 29 36 32 31 15 15 14 12 13 26 59 54 69 91 85 62 32 34 47 48
34 24 20 33 20 18 21 18 14 15 22 24 22 21 22 24 20 20 24 34 40 34 32 30 40 34 18 14 16 15 14 16 20 26 59 92 100 80 68 64 61 55 62
36 27 22 24 35 20 19 21 15 21 26 32 41 31 23 26 26 25 26 29 33 30 27 43 37 29 16 15 15 13 12 14 19 24 26 58 100 94 88 83 76 66 51
44 39 29 22 32 37 22 23 20 20 27 32 42 55 30 26 26 26 28 30 28 29 28 48 38 21 16 14 12 12 16 18 23 26 24 47 96 100 94 71 59 63 48
17 30 35 30 24 34 35 24 27 26 29 34 43 64 45 30 29 35 40 38 30 26 63 35 38 19 17 14 11 11 19 24 22 27 30 28 36 67 100 98 57 52 64
34 17 18 22 23 26 39 43 27 24 30 33 42 69 53 52 42 18 27 34 28 81 34 44 34 19 15 12 11 10 17 18 18 22 27 37 38 48 41 90 100 74 56
42 35 17 13 12 19 33 49 56 30 25 30 47 71 71 40 16 16 30 56 75 32 40 40 26 20 17 12 10 11 14 18 18 17 22 46 45 78 80 73 79 72 58
51 47 43 20 13 14 20 30 63 67 53 52 55 84 61 38 19 26 27 53 34 33 42 38 25 20 18 13 10 12 14 22 31 20 22 25 44 44 54 81 44 73 83
54 51 47 44 26 15 15 20 27 60 75 67 67 72 49 31 22 21 18 45 35 38 42 36 23 22 20 12 10 12 16 20 25 38 31 20 24 41 63 100 100 100 74
54 56 54 49 45 32 17 17 24 34 47 70 78 73 52 30 20 17 26 46 39 40 37 32 20 21 20 14 12 15 16 18 27 24 18 19 22 39 57 93 99 100 100
51 55 54 51 46 42 25 19 22 36 42 49 51 53 38 23 15 15 34 44 41 38 36 35 18 19 18 16 19 30 25 26 20 22 16 16 18 28 60 93 82 46 65
40 48 54 53 50 73 48 25 23 27 33 36 33 31 28 21 14 18 39 41 40 42 38 28 20 20 18 26 38 45 19 14 15 15 15 16 16 15 17 79 100 100 78
38 61 100 100 91 94 76 46 32 24 23 23 25 23 19 17 24 32 37 39 42 45 37 21 22 19 23 36 31 22 17 17 16 15 16 15 16 13 11 12 23 41 34
21 38 63 88 100 100 100 66 48 47 47 46 48 45 45 45 45 46 45 45 45 38 21 22 24 29 42 34 24 21 19 19 16 18 17 16 16 15 15 12 11 10 16
22 22 23 28 41 59 55 44 42 41 41 42 43 43 43 43 44 45 44 39 31 23 21 25 28 41 44 24 28 19 19 17 16 18 18 16 16 16 14 14 10 9 14
32 32 33 32 32 29 23 22 24 29 31 34 33 31 29 27 26 25 23 22 22 21 25 37 34 31 25 34 32 22 20 16 17 17 19 20 20 20 18 14 12 10 9
41 40 36 36 36 36 38 38 37 36 33 28 24 22 25 26 26 24 23 24 28 36 35 31 28 24 27 41 48 27 16 16 18 19 19 22 24 23 19 14 12 10 8
53 49 44 39 34 34 40 42 42 45 48 49 48 44 44 41 40 38 39 36 36 34 30 26 26 38 68 55 29 16 16 18 19 20 22 25 25 23 23 19 12 13 9
52 51 51 53 49 45 38 36 41 42 40 39 43 48 47 46 50 53 49 48 42 33 34 34 72 73 58 30 19 18 19 21 22 21 21 24 24 23 23 21 16 14 17
44 47 49 50 56 56 53 48 44 40 39 38 38 39 42 52 55 67 85 94 85 100 100 100 99 68 31 22 22 22 23 23 24 24 27 28 23 24 24 22 17 12 13
50 55 52 49 50 50 50 51 54 56 52 49 49 47 48 48 56 63 77 90 97 99 91 84 64 37 31 28 29 29 27 26 26 28 28 22 23 25 28 27 22 20 22
33 44 53 57 60 57 53 52 51 52 59 59 56 53 61 72 67 64 65 61 63 68 64 48 36 34 35 34 30 29 28 27 28 27 23 24 27 28 30 31 27 24 25
32 34 44 50 58 66 66 66 67 68 62 61 59 54 48 47 47 46 47 46 44 40 37 37 38 36 34 32 30 28 28 28 25 24 21 25 33 39 38 36 34 35 36
62 48 40 37 44 54 67 69 63 63 63 66 63 58 55 52 47 44 44 45 44 42 40 39 34 31 31 31 32 28 26 25 27 23 25 33 24 22 37 48 49 49 44
55 49 50 43 34 36 40 53 57 55 57 58 56 57 56 54 54 53 48 43 39 38 36 32 29 30 29 25 22 24 23 22 23 33 35 42 30 22 31 54 57 49 51

GFSGL_250_rhum_048.txt.gz
RH
17 17 26 24 19 20 19 19 19 20 23 35 22 18 15 14 15 16 18 31 64 45 44 40 32 29 38 30 16 15 13 12 12 13 21 26 71 79 70 59 21 32 43
29 21 18 29 28 19 20 20 19 20 22 23 20 17 13 15 20 21 17 20 29 34 36 35 31 34 36 30 14 13 11 14 13 12 17 23 32 80 68 81 69 60 57
31 29 22 20 26 29 19 21 23 19 20 20 18 14 15 18 20 23 23 23 27 30 31 34 29 42 37 26 16 11 12 13 13 15 22 30 32 48 70 69 75 68 67
36 40 32 23 19 25 30 19 25 24 20 19 16 17 28 31 26 23 24 26 28 31 35 34 28 48 41 31 16 12 13 17 17 16 19 33 42 49 46 55 54 59 60
29 28 34 38 29 20 35 33 20 24 25 18 15 24 29 42 52 36 26 28 30 40 41 31 57 40 42 29 15 12 18 21 20 16 16 19 36 47 72 60 60 78 53
28 28 25 29 40 27 20 28 38 21 20 25 17 21 27 34 46 59 34 32 44 22 37 31 68 40 38 27 18 14 11 18 24 26 17 18 21 41 59 67 73 63 44
40 37 37 23 32 42 32 21 27 38 28 24 25 20 23 33 37 64 49 58 21 19 30 77 36 41 38 30 19 17 12 15 18 28 30 29 21 21 39 53 68 100 77
43 44 41 40 26 19 38 34 26 28 38 35 26 26 27 30 33 64 78 60 30 25 50 46 36 41 38 31 21 20 13 14 15 22 29 17 16 17 25 57 79 100 100
38 48 48 44 41 28 15 19 23 23 28 45 55 41 28 25 31 54 83 68 44 26 24 42 36 40 41 32 23 22 16 11 13 17 20 15 12 13 18 48 64 100 100
19 40 50 50 46 42 32 14 12 14 20 38 68 79 54 42 57 72 85 71 51 29 20 38 41 35 39 35 23 22 19 14 24 31 22 16 13 11 14 29 46 64 84
9 18 43 51 49 46 42 38 20 14 15 23 31 56 84 78 69 73 78 74 53 37 17 25 41 36 37 42 25 21 15 16 34 23 23 16 16 15 16 15 14 14 24
11 12 23 40 52 52 52 50 44 24 17 19 26 33 41 54 64 65 72 75 63 40 16 20 37 38 38 45 31 19 19 36 30 26 19 17 16 18 18 17 20 22 20
12 12 12 20 42 55 53 54 51 47 37 20 18 23 35 38 42 42 46 52 47 33 17 26 37 39 42 44 36 26 22 24 33 29 19 14 16 18 20 18 19 20 23
11 11 12 14 28 49 55 55 55 49 48 41 22 23 24 30 33 30 30 31 32 22 33 48 44 40 43 42 26 24 26 44 38 15 15 14 16 19 20 19 20 22 23
12 12 12 12 16 30 47 54 54 52 56 69 46 25 22 25 27 28 27 25 21 29 49 53 49 46 41 35 28 44 71 47 28 26 24 16 16 17 19 18 18 20 23
18 21 22 20 17 17 24 40 51 70 86 100 81 53 48 40 35 33 32 31 35 41 46 47 45 41 34 27 49 70 67 40 27 30 34 26 18 17 19 20 21 22 22
22 21 19 21 26 38 45 47 68 100 100 100 100 98 70 50 46 44 42 41 40 39 37 37 32 26 31 39 67 64 40 31 26 30 47 36 16 17 20 21 24 25 25
26 29 29 27 24 24 24 26 30 38 47 52 51 47 45 43 41 37 32 31 30 26 22 21 23 30 36 37 44 41 36 29 25 51 60 27 19 18 20 25 27 27 28
32 29 29 33 34 34 34 34 33 33 32 31 31 30 30 29 27 26 25 23 24 28 35 40 41 40 38 38 37 33 27 26 49 71 48 24 21 24 28 32 32 29 27
42 35 33 34 35 37 37 37 35 34 36 37 38 40 40 36 34 32 34 35 38 40 39 36 37 46 48 44 37 32 35 54 81 84 54 33 30 31 34 36 32 26 27
67 59 46 40 40 37 34 36 40 41 41 41 44 43 44 47 50 53 59 60 64 68 66 61 63 64 66 65 63 92 100 100 98 82 53 34 35 38 36 35 30 27 23
56 56 53 48 44 41 40 39 37 38 42 48 52 54 57 54 50 54 56 59 65 65 62 59 63 77 79 89 95 94 79 70 63 49 38 38 39 38 38 35 30 28 29
48 44 40 39 44 54 50 46 45 44 44 41 42 48 52 57 57 55 55 54 54 58 62 75 77 73 72 69 61 54 46 43 47 42 41 43 42 39 36 32 27 30 25
45 43 36 34 38 48 49 48 46 46 46 47 51 54 56 54 53 52 51 52 55 58 61 62 62 66 62 52 48 44 45 46 48 50 45 44 40 37 32 29 26 22 27
48 44 34 28 34 50 51 50 52 51 48 49 48 43 42 46 49 52 54 56 62 64 65 65 61 58 53 52 54 52 51 49 46 44 45 39 34 31 26 25 25 27 34
43 41 33 28 30 33 42 48 52 54 51 46 43 40 42 43 46 48 53 57 61 61 57 54 54 56 56 56 54 53 47 42 36 31 38 36 28 24 24 27 26 33 44